Tracking 19644 objects as of 24-Apr-2019
HD Live streaming from Space Station
objects crossing your sky now

IRIDIUM 24

Track IRIDIUM 24 now!
10-day predictions
IRIDIUM 24 is classified as:


NORAD ID: 25105
Int'l Code: 1997-082B
Perigee: 759.0 km
Apogee: 772.4 km
Inclination: 86.4 °
Period: 100.0 minutes
Semi major axis: 7136 km
RCS: 4.2836 m2 (large)
Launch date: December 20, 1997
Source: United States (US)
Launch site: AIR FORCE WESTERN TEST RANGE (AFWTR)
aabbcc
Your satellite tracking list
Your tracking list is empty




NASA's NSSDC Master Catalog

Two Line Element Set (TLE):
1 25105U 97082B   19113.57918321 +.00000071 +00000-0 +16314-4 0  9997
2 25105 086.3874 310.1859 0009370 284.5748 075.4411 14.39973727119796
Source of the keplerian elements: AFSPC